Regional Weather Roundup
Issued by NWS

Home | Current Version | Previous Version | Text Only | Print | Product List | Glossary On
Versions: 1 2 3 4 5 6 7 8 9 10 11 12 13 14 15 16 17 18 19 20 21 22 23 24 25 26 27 28 29 30 31 32 33 34 35 36 37 38 39 40 41 42 43 44 45 46 47 48 49 50
000
ASUS43 KMKX 190500
RWRWI

WISCONSIN REGIONAL WEATHER ROUNDUP
NATIONAL WEATHER SERVICE MILWAUKEE/SULLIVAN WI
1200 AM CDT THU OCT 19 2017

NOTE: "FAIR" INDICATES FEW OR NO CLOUDS BELOW 12,000 FEET WITH NO
SIGNIFICANT WEATHER AND/OR OBSTRUCTIONS TO VISIBILITY.

WIZ001-002-006>008-014>016-023>028-190600-
NORTHWEST WISCONSIN

CITY           SKY/WX    TMP DP  RH WIND       PRES   REMARKS
SUPERIOR ARPT  PTCLDY    49  19  30 SW10      29.89R
ASHLAND        CLEAR     49  21  33 SW9       29.90R
HAYWARD        CLEAR     52  18  26 VRB6      29.94R
SIREN          CLOUDY    50  24  37 W10       29.96S
CUMBERLAND     CLOUDY    48  23  37 W12G21    29.97R
RICE LAKE      CLOUDY    49  26  39 W7        29.98R
CHETEK         CLOUDY    51  27  38 W7        29.97R
LADYSMITH      CLOUDY    51  25  36 W12       29.97R
EAU CLAIRE     NOT AVBL
MENOMONIE      CLOUDY    52  26  36 W8        30.00R
NEW RICHMOND   CLOUDY    48  25  40 W8        30.00R
OSCEOLA        CLOUDY    50  28  42 W8        30.02R
$$

WIZ003>005-009-010-017-018-190600-
NORTH CENTRAL WISCONSIN

CITY           SKY/WX    TMP DP  RH WIND       PRES   REMARKS
MANITOWISH WTR CLEAR     49  20  31 W8        29.88R
ARBOR VITAE    CLEAR     53  22  29 NW8       29.88R
WOODRUFF       CLEAR     53  22  29 NW8       29.88R
RHINELANDER    CLOUDY    51  22  31 W10       29.90R
EAGLE RIVER    CLEAR     52  19  26 W9        29.88R
LAND O LAKES   CLEAR     53  21  29 W7        29.88R
PHILLIPS       CLOUDY    51  22  32 W6        29.91R
TOMAHAWK       CLOUDY    51  19  28 W9G18     29.91R
MEDFORD        CLOUDY    52  24  33 W12G18    29.93R
MERRILL        CLOUDY    55  23  29 W10       29.92R
$$

WIZ029-030-035-036-043>047-190600-
CENTRAL WISCONSIN

CITY           SKY/WX    TMP DP  RH WIND       PRES   REMARKS
WAUSAU         CLOUDY    54  26  34 W15       29.92R
MOSINEE        CLOUDY    54  28  37 W9G20     29.94R
MARSHFIELD     CLOUDY    52  25  35 W10       29.95R
STEVENS POINT  CLOUDY    57  29  34 W9G18     29.94R
WAUPACA        PTCLDY    62  45  53 W13G18    29.92R
WAUTOMA        CLEAR     56  47  71 W9        29.95R
WISC RAPIDS    CLOUDY    57  31  37 NW12      29.97R
CAMP DOUGLAS   NOT AVBL
$$

WIZ011>013-019>022-031-037>040-048>050-190600-
NORTHEAST WISCONSIN

CITY           SKY/WX    TMP DP  RH WIND       PRES   REMARKS
ANTIGO         CLOUDY    54  31  41 W13G18    29.90R
SHAWANO        PTCLDY    61  46  57 W9        29.88R
OCONTO         MOCLDY    61  46  59 W10       29.85R
STURGEON BAY   PTCLDY    62  47  57 SW14      29.86R
GREEN BAY      PTCLDY    60  48  64 W12       29.89R
MANITOWOC      MOCLDY    64  46  52 W18G24    29.88S
APPLETON       PTCLDY    59  43  55 SW14      29.89R
CLINTONVILLE   CLEAR     59  45  58 W8        29.90R
OSHKOSH        PTCLDY    60  46  59 SW9G18    29.91R
$$

WIZ032>034-041-042-053>061-190600-
SOUTHWEST WISCONSIN

CITY           SKY/WX    TMP DP  RH WIND       PRES   REMARKS
LA CROSSE      CLOUDY    58  29  33 NW14      30.01R
SPARTA         CLOUDY    58  29  33 W8        30.00R
VIROQUA        CLOUDY    56  40  55 NW8       30.00R
BOSCOBEL       CLEAR     53  48  83 W3        30.00R
PRAIRIE DU CHI CLOUDY    54  46  74 NW3       30.00R
PLATTEVILLE    CLOUDY    55  48  78 SW8       30.00F
$$

WIZ056-057-062-063-064-067-068-190600-
SOUTH CENTRAL WISCONSIN

CITY           SKY/WX    TMP DP  RH WIND       PRES   REMARKS
REEDSBURG      CLEAR     60  47  63 W8        29.96R
BARABOO/DELLS  CLEAR     58  46  63 SW10      29.95S
LONE ROCK      NOT AVBL
MINERAL POINT  CLEAR     55  48  76 SW7       29.99F
MADISON        CLEAR     60  46  59 SW9       29.97S
MIDDLETON      CLEAR     61  46  56 SW12      29.97S
WATERTOWN      CLEAR     59  45  60 SW12G18   29.96F
MONROE         CLEAR     54  43  66 SW13      30.00S
JANESVILLE     CLEAR     57  43  58 SW10      30.00F
$$

WIZ051-052-058>065-066-070>072-190600-
SOUTHEAST WISCONSIN

CITY           SKY/WX    TMP DP  RH WIND       PRES   REMARKS
MILWAUKEE      PTCLDY    60  44  55 SW14      29.97F
WAUKESHA       CLEAR     59  41  51 SW12G20   29.98F
MILWAUKEE/TIMM CLOUDY    61  37  41 SW13      29.97F
RACINE         CLEAR     60  44  55 SW9       30.00F
BURLINGTON     CLEAR     56  46  67 SW14      29.99F
KENOSHA        CLEAR     61  43  51 SW13      30.00F
FOND DU LAC    PTCLDY    59  44  57 SW12      29.93R
SHEBOYGAN      CLOUDY    62  46  55 SW12G22   29.91F
WEST BEND      PTCLDY    59  41  51 SW15      29.94F
JUNEAU         CLEAR     55  45  68 SW10      29.96F
$$

LSZ147-162-190600-
LAKE SUPERIOR

STATION/POSITION TIME  TEMP    WIND        PRES    WAVE
                       AIR SEA DIR/SP/G            HT/PER
                 (UTC) (F)     (DEG/KT/KT) (MB)    (FT/S)
W MID LAKE BUOY  0350   55 53              1007.6R   5/ 6
DEVILS ISLAND    0400   57     260/ 25/ 30 1010.0R
SAXON HARBOR     0440   55     230/  4/  9 1011.5R
$$

LMZ867-665-643>646-190600-
LAKE MICHIGAN

STATION/POSITION TIME  TEMP    WIND        PRES    WAVE
                       AIR SEA DIR/SP/G            HT/PER
                 (UTC) (F)     (DEG/KT/KT) (MB)    (FT/S)
S GREEN BAY BUOY 0400   62 58  220/ 17/ 21 1010.2R
N MID LAKE BUOY  0350   62 58  200/ 21/ 27 1009.6R  11/ 9
NORTHPORT PIER   0440   63     230/  4/ 11 1009.8S
KEWAUNEE LAKESHO 0430   65     250/ 12/ 19 1010.4S
SHEBOYGAN LAKESH 0400   64     220/ 17/ 20 1012.7F
PORT WASHINGTON  0440   64     230/  8/ 15 1014.6F
ATWATER BUOY     0239   62 52  220/ 14/ 17 1015.3R
MILWAUKEE LAKESH 0440   62     230/ 14/ 16   N/A
S MID LAKE BUOY  0350   62 61  240/ 17/ 23 1016.4R   4/ 5
KENOSHA   LAKESH 0400   63     220/ 12/ 17 1016.3
$$

TC  - TEMPERATURE IN CELSIUS
VSB - VISIBILITY IN STATUTE MILES
WCI - WIND CHILL INDEX
HX  - HEAT INDEX




USA.gov is the U.S. government's official web portal to all federal, state and local government web resources and services.